CAPE
3 3 2 1 0 0 0 0 0 0 0 0 0 0 0 0 0 0 0 0 0 0 0 0 9 0 0 0 0 0 0 0 0 0 0 0 0 0 0 0 0 17 0 0 0 0 0 2 0 0 0 0 0 0 0 0 0 0 2 0 2 0 0 7 1 6 0 0 0 46 0 0 0 0 0 0 0 0 0 0 0 0 0 0 0 0 532
2 3 2 1 0 0 0 0 0 0 0 0 0 0 0 0 0 0 0 0 0 0 0 0 3 8 0 0 0 0 0 0 0 0 0 0 0 0 0 0 0 0 0 0 2 2 0 0 1 0 0 1 0 0 0 0 0 0 0 0 0 0 127 5 4 2 5 0 0 0 0 0 0 0 0 0 0 0 0 0 0 0 0 0 0 40 384
3 2 2 1 2 0 0 0 0 0 0 0 0 0 0 0 0 5 0 0 0 0 0 0 0 1 0 0 0 0 0 0 0 0 0 0 0 0 0 0 0 0 0 0 0 0 0 6 12 0 8 14 0 0 0 0 0 1 0 164 0 0 57 55 22 10 24 16 18 44 4 0 0 0 2 0 0 0 0 4 3 0 0 1 9 1055 875
4 3 2 1 2 0 0 0 0 0 0 0 0 0 0 0 0 0 0 0 0 0 0 0 0 0 6 0 0 0 0 0 0 0 0 0 0 0 0 0 0 0 0 0 0 98 13 0 174 19 22 27 0 0 0 0 0 5 0 0 0 0 4 48 33 152 23 15 44 36 17 2 11 0 0 10 0 0 0 0 12 0 0 0 849 929 979
6 4 2 2 1 0 0 0 0 0 0 0 0 0 0 0 0 0 4 0 0 0 0 0 0 0 0 0 0 0 0 0 0 0 0 0 0 0 0 0 0 2 0 16 22 8 5 60 41 1 31 5 106 0 0 0 114 17 69 2 0 0 0 25 85 150 168 11 34 2 0 0 24 2 3 1 1 0 0 0 0 89 4 25 983 1464 1235
7 6 4 2 2 1 0 0 0 0 0 0 0 0 0 0 0 0 0 1 0 0 0 0 0 0 0 0 0 0 0 0 0 0 0 0 0 0 0 0 0 0 0 0 0 9 69 42 35 4 61 45 28 27 58 0 9 98 0 0 0 0 6 192 40 73 62 25 14 3 0 5 0 5 56 461 275 38 6 0 0 0 25 73 837 641 720
6 7 5 3 3 1 0 0 0 0 0 0 0 0 2 0 0 0 0 2 2 0 0 0 0 0 0 0 0 0 0 0 0 0 0 0 0 0 0 0 0 0 0 0 0 60 21 25 15 58 50 21 39 90 24 21 3 0 0 1 0 0 17 63 5 22 9 11 4 5 4 5 130 370 173 224 20 284 46 4 0 4 171 32 1118 847 269
3 6 5 5 2 2 0 0 0 0 0 0 1 112 45 2 2 31 19 0 1 0 0 0 0 0 2 0 0 0 0 0 0 0 0 0 0 0 0 0 0 0 0 0 0 0 29 70 86 58 46 64 44 9 48 52 44 8 0 0 18 0 463 18 18 9 19 16 6 8 3 30 75 192 138 10 22 213 438 48 41 174 522 1086 762 838 531
3 3 5 6 2 1 1 0 0 0 0 0 0 2 0 0 0 0 0 2 0 0 0 0 0 0 0 0 0 0 0 0 0 2 0 0 0 0 0 0 0 0 0 0 0 0 0 0 4 50 29 50 35 21 28 1 2 26 17 0 47 0 575 0 114 104 77 11 10 40 400 5 230 216 51 58 288 247 425 632 592 619 865 417 424 699 1134
2 3 4 5 2 2 1 0 0 0 0 0 0 12 19 0 0 36 15 0 0 0 0 0 0 0 2 0 1 0 3 0 0 0 0 0 0 0 0 0 0 0 0 0 0 0 0 0 0 0 3 1 19 29 27 4 0 11 5 1 0 0 0 182 365 86 34 41 23 24 204 4 158 87 0 67 98 239 158 228 258 345 507 684 714 516 758
2 2 2 4 5 3 2 1 0 0 0 0 0 0 55 0 0 17 97 1 0 0 0 2 0 4 4 4 4 0 0 4 0 0 57 0 0 0 0 0 0 0 86 14 0 0 0 0 0 0 0 0 9 17 17 10 5 2 0 0 0 2 0 0 3 0 14 6 1 30 13 5 8 6 6 508 46 209 39 224 319 503 745 864 698 824 914
2 2 2 3 5 4 3 2 0 0 0 0 0 0 2 2 0 44 167 6 0 0 0 0 2 0 0 1 0 1 4 0 0 0 0 0 0 0 0 0 0 1 6 0 0 0 0 0 0 0 0 8 30 44 1 2 5 5 0 0 0 0 0 0 18 88 84 65 144 13 12 16 11 28 0 0 365 145 133 127 575 765 835 922 785 944 1214
3 3 3 1 4 4 2 4 0 0 0 0 0 0 0 0 9 0 57 95 63 3 23 2 4 4 6 3 3 3 0 0 0 0 0 0 0 0 0 0 0 0 0 0 0 0 0 0 1 0 56 51 48 30 28 13 52 0 0 0 0 0 0 0 0 27 324 18 4 2 13 7 77 0 1 0 0 46 29 289 610 1010 1057 999 894 871 730
3 3 3 2 2 5 4 4 1 0 0 0 0 0 0 1 5 0 30 128 174 38 3 7 10 2 1 2 4 3 1 0 0 0 0 0 0 0 0 0 0 0 0 0 0 0 5 1 38 19 11 8 15 23 112 45 40 9 0 0 0 0 0 0 283 88 62 30 53 140 101 191 67 209 43 4 0 52 373 229 401 751 876 809 625 797 711
3 3 3 3 1 3 6 3 2 0 0 0 0 0 0 0 3 0 0 87 210 140 32 2 49 10 3 2 4 9 3 5 0 0 0 0 0 0 0 0 0 0 0 0 0 0 0 69 81 20 205 59 126 79 41 51 22 22 0 0 0 0 0 9 0 146 292 162 30 3 6 4 185 189 29 1 0 0 528 384 48 556 731 580 585 422 599
4 3 3 3 1 1 4 4 3 0 0 0 0 0 0 22 32 0 0 0 35 88 65 14 8 2 3 5 12 7 20 14 4 0 0 0 0 0 0 0 0 0 0 0 0 23 1 12 98 18 199 59 92 110 60 31 4 15 0 0 0 0 0 6 0 329 61 99 20 1 6 10 34 131 66 25 0 0 0 48 105 313 764 398 535 427 410
2 4 3 2 1 1 4 4 4 1 0 0 0 0 0 4 11 0 0 12 112 158 105 13 0 1 8 0 1 4 4 7 6 0 2 16 0 0 0 0 0 0 0 0 10 3 27 0 1 26 10 68 1 0 0 0 0 13 120 30 2 0 0 0 0 0 39 452 152 92 60 319 291 187 59 36 0 0 0 0 65 121 564 619 307 230 343
1 4 4 3 4 2 2 4 4 1 0 0 0 0 0 0 0 1 0 1 68 147 91 5 0 0 4 41 0 1 0 5 0 0 0 104 6 0 0 0 0 0 0 0 72 0 10 44 12 32 124 48 49 0 9 51 12 59 27 16 22 190 12 0 0 0 381 123 161 33 189 133 54 116 91 236 143 10 0 12 26 7 530 617 579 250 288
3 2 2 4 1 1 2 1 5 2 0 0 0 0 0 4 63 0 0 0 0 47 20 107 12 0 8 0 13 12 3 14 3 6 2 48 9 0 0 0 0 0 0 0 94 140 108 294 56 102 91 176 132 0 80 0 140 63 4 34 105 63 2 0 0 0 110 237 203 141 264 99 105 178 219 552 261 297 122 14 673 477 643 439 490 572 446
5 3 2 3 2 0 1 1 3 2 0 0 0 0 0 0 0 0 0 0 0 5 20 50 39 5 0 1 2 0 4 0 0 3 6 0 60 0 0 0 0 0 12 0 1 80 122 869 317 336 65 282 112 73 40 74 63 25 89 59 58 84 61 246 48 47 9 171 224 53 109 429 240 270 163 733 528 187 352 626 759 938 858 823 804 507 360
4 4 2 2 2 1 0 0 2 1 1 0 0 0 0 2 0 2 7 0 0 0 0 0 0 0 7 3 3 1 2 10 4 2 0 18 93 52 2 0 27 0 118 45 0 287 105 311 524 398 124 24 68 78 144 212 43 24 10 189 44 56 33 239 81 198 18 27 143 52 177 286 487 566 601 581 606 590 574 760 782 825 829 782 610 611 582
4 5 4 2 2 2 1 1 1 1 0 0 0 0 0 0 76 72 72 7 0 0 0 0 0 0 0 0 8 0 6 0 1 0 2 203 113 30 172 87 26 69 180 192 188 72 63 116 503 470 76 93 24 17 354 91 66 134 65 31 122 91 275 275 109 145 304 363 279 252 223 197 303 353 358 396 430 391 235 647 672 801 975 1089 857 837 704
6 4 3 1 4 5 7 3 3 3 1 0 0 0 0 0 0 0 0 0 0 0 0 0 0 0 0 0 0 8 13 3 0 0 0 0 14 5 7 71 96 139 45 94 187 195 168 0 62 353 334 216 106 513 124 18 96 82 114 48 48 117 132 226 104 179 280 244 243 247 192 124 57 85 128 148 121 218 447 790 831 730 893 902 1100 915 649
8 6 3 6 6 7 3 2 1 4 0 0 0 0 0 0 0 0 0 1 6 0 0 0 0 0 0 0 0 0 0 0 0 0 0 0 12 16 0 0 104 104 61 245 155 347 207 173 105 150 298 731 66 90 220 89 380 137 128 415 88 7 0 11 172 135 48 79 174 210 163 160 123 111 129 148 112 99 256 758 914 916 824 842 986 815 692
6 5 6 6 7 6 2 1 1 1 0 0 0 0 0 0 0 36 138 122 103 50 18 0 0 0 0 0 0 0 0 0 0 0 0 0 0 0 6 48 60 201 329 440 140 44 78 41 90 20 0 317 19 270 158 106 412 337 71 82 233 37 0 71 71 78 268 210 290 318 258 291 390 337 252 164 92 115 166 403 725 984 1000 892 792 837 704
9 10 9 9 10 4 1 1 1 0 0 0 0 1 0 0 0 0 0 5 13 0 31 0 0 0 0 0 2 0 0 0 0 0 0 0 0 0 15 116 134 32 124 223 159 2 8 34 0 54 55 92 171 44 330 51 280 137 89 104 132 79 0 39 374 337 339 274 155 113 91 51 125 131 131 194 183 95 104 82 579 985 783 738 776 806 796
9 12 10 8 7 5 1 0 0 1 0 0 0 3 0 0 0 0 0 104 200 153 10 2 8 22 3 0 2 0 1 0 0 0 0 0 0 0 0 0 66 188 64 15 7 10 32 33 86 170 34 162 36 0 107 131 99 125 18 94 60 57 118 445 61 115 201 497 31 93 96 81 312 268 276 223 182 171 108 64 90 80 234 511 548 551 639
10 10 10 9 10 12 11 2 0 0 0 0 0 2 0 0 0 0 0 18 134 282 353 376 287 209 24 0 0 0 0 0 0 0 0 0 0 0 0 0 1 37 25 0 49 1 2 37 56 0 84 30 32 3 0 0 70 33 0 124 83 83 368 309 491 100 404 575 439 798 942 777 558 295 272 252 226 280 220 162 134 80 100 118 204 310 444
7 8 12 14 14 14 11 4 0 0 0 0 0 0 0 0 0 0 0 15 107 59 30 29 19 97 37 248 0 0 0 0 0 0 0 0 0 0 0 55 36 7 10 1 6 76 128 29 0 101 349 149 0 22 7 0 0 39 560 480 473 573 707 620 528 674 717 631 359 171 297 442 386 297 239 284 374 367 202 209 171 126 122 136 113 157 219
7 10 10 16 16 8 3 1 0 0 0 0 0 0 1 4 7 1 0 6 98 207 165 80 19 0 26 0 1 1 0 0 0 0 0 0 2 0 7 69 55 7 52 76 42 58 98 42 105 185 300 750 75 2 78 161 194 564 639 633 442 431 488 476 267 424 461 601 494 485 441 561 274 342 277 216 107 333 364 216 145 55 48 115 177 175 140
8 7 9 12 12 10 0 0 2 1 0 0 1 10 0 44 56 0 0 42 106 74 86 53 34 75 11 3 1 1 0 0 0 0 0 0 2 0 41 25 47 52 103 124 95 43 168 133 116 253 275 176 27 2 1 71 274 428 414 412 452 339 470 539 598 788 458 395 418 339 404 469 450 417 294 331 254 273 425 428 290 104 55 96 167 243 298
8 5 7 10 10 10 2 0 0 0 1 2 0 16 105 112 129 22 0 0 68 115 66 0 0 0 3 0 0 0 0 0 0 0 0 0 16 4 140 4 34 2 5 206 112 81 140 153 384 554 407 114 0 0 0 6 542 490 418 432 314 540 462 376 312 441 434 305 320 196 303 476 239 605 539 390 268 206 81 211 216 26 62 22 67 150 230
4 8 4 6 10 8 0 1 0 0 1 0 0 0 26 59 96 126 96 0 86 170 179 42 0 0 0 0 1 0 0 12 0 0 2 0 43 30 110 3 36 38 159 119 413 196 171 127 260 348 407 262 84 0 0 27 672 688 685 487 615 529 567 409 425 379 405 274 268 544 473 696 369 531 527 320 238 196 46 11 0 0 74 79 30 62 103
3 2 2 0 2 0 1 1 1 1 0 0 14 6 50 55 40 0 0 0 249 333 176 74 44 2 12 10 4 39 0 3 4 0 27 0 118 66 91 36 51 87 151 25 212 55 201 127 238 460 617 466 236 174 289 543 403 620 508 550 580 555 540 454 477 453 387 398 186 404 673 662 475 269 218 165 282 102 2 0 0 0 0 0 9 32 51
0 0 0 0 0 0 1 1 0 2 52 54 31 77 56 68 49 1 0 63 151 0 6 48 54 73 3 42 24 8 0 0 21 0 2 21 59 92 62 212 138 47 337 8 64 244 249 266 118 263 574 642 444 275 182 987 882 446 568 566 561 572 497 474 434 528 477 397 278 400 358 396 318 151 184 120 158 114 0 0 0 0 0 0 0 0 1
1 2 6 8 5 1 4 0 2 56 45 88 61 195 64 79 65 20 0 74 398 350 70 0 0 0 1 31 38 94 0 0 22 14 0 9 46 33 148 150 143 48 652 38 98 135 72 356 155 213 467 553 660 446 936 645 733 354 390 363 399 447 539 543 542 471 452 259 307 324 289 193 182 225 242 166 57 12 10 0 0 0 0 0 0 0 0
6 5 6 4 6 5 5 33 60 43 105 80 56 62 70 178 224 235 243 155 299 255 132 166 34 0 0 14 62 162 0 5 0 58 15 101 282 76 144 322 132 309 202 286 245 263 326 360 219 242 486 463 785 1010 1088 940 841 902 689 805 630 552 560 475 498 448 411 268 343 270 195 121 130 261 152 106 42 6 0 0 1 0 0 0 0 0 0
4 5 7 12 10 23 81 132 136 181 23 50 52 66 21 139 14 43 139 58 150 276 132 21 44 100 48 0 1 205 13 18 0 26 52 29 407 300 100 232 80 164 178 278 338 122 92 336 521 295 437 1049 1183 805 911 810 614 823 832 832 664 536 511 456 452 402 394 296 326 215 123 86 106 151 56 36 18 15 23 18 7 0 0 0 0 0 0
2 8 4 8 33 132 130 226 174 14 59 87 150 50 3 10 18 1 3 4 19 31 41 0 15 32 50 68 135 42 29 178 39 18 672 202 78 221 200 204 275 88 172 101 429 174 132 537 375 241 288 1069 812 907 957 773 535 612 554 462 720 656 573 497 427 354 347 297 272 263 209 123 78 84 64 46 28 4 0 0 0 0 0 0 0 0 0
7 2 8 36 136 227 250 138 92 126 90 50 92 358 65 7 20 43 7 0 0 2 0 0 0 2 2 9 8 162 39 47 160 189 537 682 198 133 398 301 646 140 63 84 166 136 161 68 567 330 172 1013 1170 1066 772 627 617 609 639 676 636 649 608 438 295 266 269 507 310 262 228 185 156 84 64 20 5 0 0 0 0 0 0 0 0 0 0
3 5 37 46 88 124 166 81 118 97 60 63 126 34 20 27 10 80 94 2 0 0 0 0 0 0 0 0 0 23 89 477 706 390 266 312 674 86 228 108 119 47 81 194 438 295 201 120 181 166 193 675 1180 1049 759 728 780 647 811 804 706 656 506 441 366 370 413 435 349 280 241 127 64 14 4 0 0 0 0 0 0 0 0 0 0 0 0
7 15 19 57 81 182 87 104 166 189 102 81 26 20 52 16 17 13 34 85 44 39 7 0 0 0 0 0 2 0 40 178 302 231 133 214 539 92 46 234 437 45 118 280 222 319 321 236 178 203 778 684 1015 1062 978 904 898 889 904 822 759 629 468 478 491 378 381 340 355 283 235 68 67 5 1 0 0 0 0 0 0 0 0 0 0 0 0
2 14 22 78 148 68 118 30 145 292 16 16 0 2 11 0 37 49 73 76 110 24 41 0 0 0 0 0 0 1 302 8 50 120 26 147 348 171 124 86 27 86 215 83 209 353 179 92 78 224 739 1032 1021 1040 903 1025 1092 1052 950 901 798 664 511 499 468 355 324 315 280 184 56 4 0 0 0 0 0 0 0 0 0 0 0 0 0 0 0
22 32 44 144 57 67 95 3 118 14 4 2 1 0 20 18 20 26 28 80 87 58 53 0 0 0 0 0 1 55 183 74 2 96 70 267 242 90 27 74 89 165 103 232 314 121 175 153 202 446 722 810 666 564 440 981 1000 914 866 885 792 630 347 292 330 186 111 83 11 0 0 0 0 0 0 0 0 0 0 0 0 0 0 0 0 0 0
25 40 68 49 38 103 5 1 2 2 0 13 14 25 4 30 56 73 161 110 37 32 76 14 0 0 0 0 0 117 71 158 30 47 228 211 230 188 125 132 206 219 106 203 70 137 178 138 529 746 771 628 799 787 1075 883 998 944 995 804 710 482 375 328 277 168 74 0 0 0 0 0 0 0 0 0 0 0 0 0 0 0 0 0 0 0 0
12 39 37 6 4 3 1 13 10 2 41 30 48 59 38 67 38 66 4 4 46 8 109 66 24 0 6 0 0 52 46 177 58 2 207 337 195 180 330 240 150 316 91 181 129 73 131 88 500 827 690 792 815 992 932 905 814 773 852 736 563 444 277 266 204 172 43 0 0 0 0 0 0 0 0 0 0 0 0 0 0 0 0 0 0 1 2
13 13 25 4 1 0 0 9 39 67 92 80 92 127 78 39 18 2 18 0 2 5 79 75 46 0 14 0 0 0 20 122 109 42 108 329 144 197 247 216 130 158 104 64 66 52 143 93 657 724 611 806 689 724 671 618 494 691 705 702 436 425 318 216 66 12 0 0 0 0 0 0 0 0 0 0 0 0 0 0 0 1 3 3 5 5 3
11 24 94 4 15 25 21 43 52 91 59 65 112 72 66 46 2 0 5 70 579 714 141 73 8 1 16 5 4 145 73 267 192 210 207 365 86 214 150 94 132 254 182 266 57 128 20 682 723 767 710 712 680 620 560 458 545 584 695 584 500 309 199 122 9 0 0 0 0 0 1 2 1 0 0 0 0 0 0 0 2 4 6 10 8 7 9
14 8 27 28 49 91 122 78 36 41 92 78 88 146 152 34 3 42 404 865 1168 423 292 489 1296 30 360 453 96 292 345 371 77 127 211 232 152 20 79 176 189 130 244 178 79 30 338 592 796 678 744 717 723 760 731 664 670 680 561 545 339 244 85 62 0 0 0 0 0 0 0 0 0 0 0 0 0 0 2 4 5 9 8 10 9 10 12
10 9 29 60 39 74 121 139 25 55 72 90 121 77 87 74 27 125 426 333 1158 880 560 448 383 475 342 437 182 196 231 307 211 175 136 168 185 217 191 84 87 94 156 177 214 364 427 392 394 582 525 459 533 538 492 502 517 440 391 178 144 112 19 0 0 0 0 0 0 0 0 0 0 0 0 0 1 2 5 8 12 13 18 17 17 20 20
9 9 20 21 115 304 52 73 44 64 58 94 151 141 165 297 251 260 509 518 302 304 254 290 363 496 220 141 59 37 158 389 411 374 137 119 211 67 193 115 16 172 85 30 119 156 358 326 327 383 362 520 480 396 298 462 362 231 105 54 50 5 0 0 0 0 0 0 0 0 0 1 1 2 2 5 7 9 12 10 12 15 14 14 17 21 20
3 0 5 70 15 53 97 74 22 25 87 176 68 46 33 274 88 643 482 570 342 337 192 162 217 89 84 62 116 204 447 266 393 501 351 369 246 222 168 298 211 760 1 13 72 56 34 134 340 524 586 587 620 487 433 368 297 84 17 9 0 0 0 0 0 0 0 0 0 0 0 2 2 4 5 6 11 11 11 12 13 12 11 11 17 14 16
Wind_Speed
nan nan nan nan nan nan nan nan nan nan nan nan nan nan nan nan nan nan nan nan nan nan nan nan nan nan nan nan nan nan nan nan nan nan nan nan nan nan nan nan nan nan nan nan nan nan nan nan nan nan nan nan nan nan nan nan nan nan nan nan nan nan nan nan nan nan nan nan nan nan nan nan nan nan nan nan nan nan nan nan nan nan nan nan nan nan 26
nan nan nan nan nan nan nan nan nan nan nan nan nan nan nan nan nan nan nan nan nan nan nan nan nan nan nan nan nan nan nan nan nan nan nan nan nan nan nan nan nan nan nan nan nan nan nan nan nan nan nan nan nan nan nan nan nan nan nan nan nan nan 26 nan nan nan nan nan nan nan nan nan nan nan nan nan nan nan nan nan nan nan nan nan nan nan 30
nan nan nan nan nan nan nan nan nan nan nan nan nan nan nan nan nan nan nan nan nan nan nan nan nan nan nan nan nan nan nan nan nan nan nan nan nan nan nan nan nan nan nan nan nan nan nan nan nan nan nan nan nan nan nan nan nan nan nan 25 nan nan nan nan nan nan nan nan nan nan nan nan nan nan nan nan nan nan nan nan nan nan nan nan nan 33 36
nan nan nan nan nan nan nan nan nan nan nan nan nan nan nan nan nan nan nan nan nan nan nan nan nan nan nan nan nan nan nan nan nan nan nan nan nan nan nan nan nan nan nan nan nan nan nan nan 10 nan nan nan nan nan nan nan nan nan nan nan nan nan nan nan nan 25 nan nan nan nan nan nan nan nan nan nan nan nan nan nan nan nan nan nan 28 33 36
nan nan nan nan nan nan nan nan nan nan nan nan nan nan nan nan nan nan nan nan nan nan nan nan nan nan nan nan nan nan nan nan nan nan nan nan nan nan nan nan nan nan nan nan nan nan nan nan nan nan nan nan 7 nan nan nan 25 nan nan nan nan nan nan nan nan 23 20 nan nan nan nan nan nan nan nan nan nan nan nan nan nan nan nan nan 32 38 36
nan nan nan nan nan nan nan nan nan nan nan nan nan nan nan nan nan nan nan nan nan nan nan nan nan nan nan nan nan nan nan nan nan nan nan nan nan nan nan nan nan nan nan nan nan nan nan nan nan nan nan nan nan nan nan nan nan nan nan nan nan nan nan 28 nan nan nan nan nan nan nan nan nan nan nan 42 33 nan nan nan nan nan nan nan 39 40 44
nan nan nan nan nan nan nan nan nan nan nan nan nan nan nan nan nan nan nan nan nan nan nan nan nan nan nan nan nan nan nan nan nan nan nan nan nan nan nan nan nan nan nan nan nan nan nan nan nan nan nan nan nan nan nan nan nan nan nan nan nan nan nan nan nan nan nan nan nan nan nan nan 29 44 56 54 nan 53 nan nan nan nan 24 nan 49 51 51
nan nan nan nan nan nan nan nan nan nan nan nan nan 15 nan nan nan nan nan nan nan nan nan nan nan nan nan nan nan nan nan nan nan nan nan nan nan nan nan nan nan nan nan nan nan nan nan nan nan nan nan nan nan nan nan nan nan nan nan nan nan nan 23 nan nan nan nan nan nan nan nan nan nan 43 52 nan nan 54 52 nan nan 47 40 42 44 51 49
nan nan nan nan nan nan nan nan nan nan nan nan nan nan nan nan nan nan nan nan nan nan nan nan nan nan nan nan nan nan nan nan nan nan nan nan nan nan nan nan nan nan nan nan nan nan nan nan nan nan nan nan nan nan nan nan nan nan nan nan nan nan 22 nan 26 22 nan nan nan nan 30 nan 32 39 nan nan 48 48 51 50 54 56 49 46 46 43 43
nan nan nan nan nan nan nan nan nan nan nan nan nan nan nan nan nan nan nan nan nan nan nan nan nan nan nan nan nan nan nan nan nan nan nan nan nan nan nan nan nan nan nan nan nan nan nan nan nan nan nan nan nan nan nan nan nan nan nan nan nan nan nan 21 24 nan nan nan nan nan 23 nan 28 nan nan nan nan 38 42 50 57 55 49 51 51 39 33
nan nan nan nan nan nan nan nan nan nan nan nan nan nan nan nan nan nan nan nan nan nan nan nan nan nan nan nan nan nan nan nan nan nan nan nan nan nan nan nan nan nan nan nan nan nan nan nan nan nan nan nan nan nan nan nan nan nan nan nan nan nan nan nan nan nan nan nan nan nan nan nan nan nan nan 30 nan 39 nan 54 54 53 48 43 43 42 34
nan nan nan nan nan nan nan nan nan nan nan nan nan nan nan nan nan nan 11 nan nan nan nan nan nan nan nan nan nan nan nan nan nan nan nan nan nan nan nan nan nan nan nan nan nan nan nan nan nan nan nan nan nan nan nan nan nan nan nan nan nan nan nan nan nan nan nan nan 25 nan nan nan nan nan nan nan 21 22 42 55 54 51 45 42 44 42 39
nan nan nan nan nan nan nan nan nan nan nan nan nan nan nan nan nan nan nan nan nan nan nan nan nan nan nan nan nan nan nan nan nan nan nan nan nan nan nan nan nan nan nan nan nan nan nan nan nan nan nan nan nan nan nan nan nan nan nan nan nan nan nan nan nan nan 23 nan nan nan nan nan nan nan nan nan nan nan nan 39 45 44 42 42 43 42 43
nan nan nan nan nan nan nan nan nan nan nan nan nan nan nan nan nan nan nan 15 12 nan nan nan nan nan nan nan nan nan nan nan nan nan nan nan nan nan nan nan nan nan nan nan nan nan nan nan nan nan nan nan nan nan 10 nan nan nan nan nan nan nan nan nan 20 nan nan nan nan 26 30 25 nan 30 nan nan nan nan 25 25 32 37 36 40 43 46 46
nan nan nan nan nan nan nan nan nan nan nan nan nan nan nan nan nan nan nan nan 13 11 nan nan nan nan nan nan nan nan nan nan nan nan nan nan nan nan nan nan nan nan nan nan nan nan nan nan nan nan 7 nan 4 nan nan nan nan nan nan nan nan nan nan nan nan 20 20 18 nan nan nan nan 27 29 nan nan nan nan 30 27 nan 35 34 34 39 44 47
nan nan nan nan nan nan nan nan nan nan nan nan nan nan nan nan nan nan nan nan nan nan nan nan nan nan nan nan nan nan nan nan nan nan nan nan nan nan nan nan nan nan nan nan nan nan nan nan nan nan 8 nan nan 2 nan nan nan nan nan nan nan nan nan nan nan 17 nan nan nan nan nan nan nan 21 nan nan nan nan nan nan 28 30 32 33 35 40 42
nan nan nan nan nan nan nan nan nan nan nan nan nan nan nan nan nan nan nan nan 16 12 15 nan nan nan nan nan nan nan nan nan nan nan nan nan nan nan nan nan nan nan nan nan nan nan nan nan nan nan nan nan nan nan nan nan nan nan 12 nan nan nan nan nan nan nan nan 20 18 nan nan 17 20 24 nan nan nan nan nan nan nan 29 34 32 34 36 39
nan nan nan nan nan nan nan nan nan nan nan nan nan nan nan nan nan nan nan nan nan 16 nan nan nan nan nan nan nan nan nan nan nan nan nan 13 nan nan nan nan nan nan nan nan nan nan nan nan nan nan 7 nan nan nan nan nan nan nan nan nan nan 11 nan nan nan nan 16 19 20 nan 15 12 nan 20 nan 26 27 nan nan nan nan nan 34 34 35 36 37
nan nan nan nan nan nan nan nan nan nan nan nan nan nan nan nan nan nan nan nan nan nan nan 18 nan nan nan nan nan nan nan nan nan nan nan nan nan nan nan nan nan nan nan nan nan 5 5 8 nan 5 nan 7 1 nan nan nan 7 nan nan nan 12 nan nan nan nan nan 18 20 20 18 19 nan 10 12 19 26 18 22 29 nan 31 29 34 37 37 37 36
nan nan nan nan nan nan nan nan nan nan nan nan nan nan nan nan nan nan nan nan nan nan nan nan nan nan nan nan nan nan nan nan nan nan nan nan nan nan nan nan nan nan nan nan nan nan 7 12 10 7 nan 9 6 nan nan nan nan nan nan nan nan nan nan 19 nan nan nan 16 22 nan 14 17 15 14 14 28 25 27 27 27 31 33 34 35 37 37 37
nan nan nan nan nan nan nan nan nan nan nan nan nan nan nan nan nan nan nan nan nan nan nan nan nan nan nan nan nan nan nan nan nan nan nan nan nan nan nan nan nan nan 16 nan nan 15 12 11 8 8 9 nan nan nan 5 7 nan nan nan 11 nan nan nan 11 nan 17 nan nan 22 nan 16 16 20 21 21 24 28 28 30 27 27 28 30 33 37 40 39
nan nan nan nan nan nan nan nan nan nan nan nan nan nan nan nan nan nan nan nan nan nan nan nan nan nan nan nan nan nan nan nan nan nan nan 17 17 nan 18 nan nan nan 17 15 18 nan nan 10 7 6 nan nan nan nan 7 nan nan 8 nan nan 9 nan 13 11 11 13 15 18 18 15 14 19 20 21 21 23 25 27 34 35 30 27 29 30 33 38 40
nan nan nan nan nan nan nan nan nan nan nan nan nan nan nan nan nan nan nan nan nan nan nan nan nan nan nan nan nan nan nan nan nan nan nan nan nan nan nan nan nan 18 nan nan 14 11 8 nan nan 11 14 14 8 13 4 nan nan nan 6 nan nan 6 9 7 8 18 19 20 18 14 17 18 nan nan 20 23 26 28 30 31 28 27 28 28 31 32 37
nan nan nan nan nan nan nan nan nan nan nan nan nan nan nan nan nan nan nan nan nan nan nan nan nan nan nan nan nan nan nan nan nan nan nan nan nan nan nan nan 18 11 nan 18 18 14 14 11 10 8 8 8 nan nan 9 nan 9 10 13 9 nan nan nan nan 13 12 nan nan 16 17 16 15 17 20 20 22 23 nan 27 28 25 24 27 29 30 32 33
nan nan nan nan nan nan nan nan nan nan nan nan nan nan nan nan nan nan 28 28 27 nan nan nan nan nan nan nan nan nan nan nan nan nan nan nan nan nan nan nan nan 21 20 20 17 nan nan nan nan nan nan 14 nan 10 7 6 8 5 nan nan 6 nan nan nan nan nan 13 14 15 17 16 17 17 18 19 21 nan 26 27 27 27 25 25 27 28 28 30
nan nan nan nan nan nan nan nan nan nan nan nan nan nan nan nan nan nan nan nan nan nan nan nan nan nan nan nan nan nan nan nan nan nan nan nan nan nan nan 22 16 nan 16 14 13 nan nan nan nan nan nan nan 11 nan 11 nan 12 9 nan 12 10 nan nan nan 13 14 16 15 12 14 nan nan 18 20 21 21 22 nan 27 nan 30 28 26 26 26 26 28
nan nan nan nan nan nan nan nan nan nan nan nan nan nan nan nan nan nan nan 29 28 25 nan nan nan nan nan nan nan nan nan nan nan nan nan nan nan nan nan nan nan 16 nan nan nan nan nan nan nan 12 nan 13 nan nan 9 6 nan 7 nan nan nan nan 16 14 nan 12 14 11 nan nan nan nan 16 19 19 19 21 23 25 nan nan nan 30 27 26 26 26
nan nan nan nan nan nan nan nan nan nan nan nan nan nan nan nan nan nan nan nan 25 27 29 28 27 26 nan nan nan nan nan nan nan nan nan nan nan nan nan nan nan nan nan nan nan nan nan nan nan nan nan nan nan nan nan nan nan nan nan 13 nan nan 16 12 15 nan 13 11 16 19 18 16 15 18 18 19 20 23 25 26 27 nan 29 30 29 28 27
nan nan nan nan nan nan nan nan nan nan nan nan nan nan nan nan nan nan nan nan 27 nan nan nan nan nan nan 15 nan nan nan nan nan nan nan nan nan nan nan nan nan nan nan nan nan nan 15 nan nan 15 15 17 nan nan nan nan nan nan 20 22 22 22 22 22 20 21 18 14 11 15 14 14 14 16 17 19 19 23 25 26 27 29 30 29 30 28 28
nan nan nan nan nan nan nan nan nan nan nan nan nan nan nan nan nan nan nan nan nan 29 27 nan nan nan nan nan nan nan nan nan nan nan nan nan nan nan nan nan nan nan nan nan nan nan nan nan 17 17 15 15 nan nan nan 10 17 20 16 21 23 23 22 20 17 15 18 17 15 16 19 18 17 17 18 19 21 23 25 26 27 nan nan 29 30 29 28
nan nan nan nan nan nan nan nan nan nan nan nan nan nan nan nan nan nan nan nan 32 nan nan nan nan nan nan nan nan nan nan nan nan nan nan nan nan nan nan nan nan nan 18 18 nan nan 18 14 13 18 16 16 nan nan nan nan 20 14 17 16 20 18 19 21 21 20 17 18 17 17 17 18 19 18 21 21 22 23 24 25 28 28 nan nan 31 30 30
nan nan nan nan nan nan nan nan nan nan nan nan nan nan 35 36 36 nan nan nan nan 30 nan nan nan nan nan nan nan nan nan nan nan nan nan nan nan nan 23 nan nan nan nan 19 17 nan 16 18 16 17 13 18 nan nan nan nan 19 18 16 17 19 21 19 20 19 20 19 18 17 17 16 19 20 21 22 22 23 24 nan 24 27 nan nan nan nan 34 32
nan nan nan nan nan nan nan nan nan nan nan nan nan nan nan nan nan 15 nan nan nan 29 29 nan nan nan nan nan nan nan nan nan nan nan nan nan nan nan 19 nan nan nan 26 21 20 18 19 16 18 14 19 19 nan nan nan nan 21 21 17 18 20 19 19 20 19 20 19 18 15 15 18 22 25 25 23 23 23 24 nan nan nan nan nan nan nan nan 34
nan nan nan nan nan nan nan nan nan nan nan nan nan nan nan nan nan nan nan nan 31 29 28 nan nan nan nan nan nan nan nan nan nan nan nan nan 18 nan nan nan nan nan 22 nan 22 nan 20 18 16 18 21 14 15 14 14 24 21 20 18 17 17 18 19 19 20 19 20 19 19 21 25 27 27 26 24 25 25 26 nan nan nan nan nan nan nan nan nan
nan nan nan nan nan nan nan nan nan nan nan nan nan nan nan nan nan nan nan nan 30 nan nan nan nan nan nan nan nan nan nan nan nan nan nan nan nan nan nan 20 25 nan 24 nan nan 19 20 19 18 16 14 18 16 15 18 21 19 18 17 20 17 17 19 18 20 21 21 22 21 24 24 26 24 26 26 26 26 27 nan nan nan nan nan nan nan nan nan
nan nan nan nan nan nan nan nan nan nan nan nan nan 31 nan nan nan nan nan nan 32 31 nan nan nan nan nan nan nan nan nan nan nan nan nan nan nan nan 22 20 18 nan 27 nan nan 20 nan 23 19 15 20 16 15 18 23 21 16 15 17 15 17 15 17 18 22 21 22 21 23 25 25 26 25 27 28 27 nan nan nan nan nan nan nan nan nan nan nan
nan nan nan nan nan nan nan nan nan nan 25 nan nan nan nan 22 26 29 30 30 27 26 27 29 nan nan nan nan nan 20 nan nan nan nan nan 17 16 nan 16 18 19 22 18 17 17 18 22 25 18 17 19 14 18 25 24 22 18 14 17 18 18 18 19 20 21 22 23 23 24 24 24 24 27 28 26 27 nan nan nan nan nan nan nan nan nan nan nan
nan nan nan nan nan nan nan 27 27 32 nan nan nan nan nan 20 nan nan 29 nan 26 25 24 nan nan 23 nan nan nan 18 nan nan nan nan nan nan 21 19 nan 17 nan 22 17 17 19 20 nan 19 17 18 16 19 24 23 22 18 17 20 19 19 19 19 21 22 23 22 23 24 25 25 26 nan 27 27 nan nan nan nan nan nan nan nan nan nan nan nan nan
nan nan nan nan nan 26 26 30 31 nan nan nan 18 nan nan nan nan nan nan nan nan nan nan nan nan nan nan nan 19 nan nan 17 nan nan 21 21 nan 18 17 13 21 nan 20 18 20 24 16 18 16 17 16 21 19 21 20 16 18 21 22 19 19 21 22 23 22 24 24 23 25 27 26 27 nan nan nan nan nan nan nan nan nan nan nan nan nan nan nan
nan nan nan nan 25 28 28 27 nan 22 nan nan nan 22 nan nan nan nan nan nan nan nan nan nan nan nan nan nan nan 15 nan nan 12 15 20 20 23 20 20 18 24 19 nan nan 21 16 14 nan 21 20 20 18 16 20 19 16 20 20 22 22 23 23 23 23 23 24 25 30 29 30 29 30 30 nan nan nan nan nan nan nan nan nan nan nan nan nan nan
nan nan nan nan nan 19 23 nan 19 nan nan nan 19 nan nan nan nan nan nan nan nan nan nan nan nan nan nan nan nan nan nan 25 25 24 20 17 23 nan 16 17 19 nan nan 17 21 16 17 15 15 18 21 14 17 20 20 18 20 20 22 23 24 24 24 25 26 27 29 30 31 32 32 33 nan nan nan nan nan nan nan nan nan nan nan nan nan nan nan
nan nan nan nan nan 11 nan 15 13 14 17 nan nan nan nan nan nan nan nan nan nan nan nan nan nan nan nan nan nan nan nan 22 23 21 16 16 21 nan nan 20 20 nan 19 23 18 17 17 15 16 21 21 17 19 21 21 21 22 24 24 24 25 25 26 28 28 29 30 32 32 33 34 nan nan nan nan nan nan nan nan nan nan nan nan nan nan nan nan
nan nan nan nan 9 nan 9 nan 10 13 nan nan nan nan nan nan nan nan nan nan 17 nan nan nan nan nan nan nan nan nan 21 nan nan 15 nan 17 22 18 16 nan nan nan 18 nan 16 18 16 nan nan 20 19 18 20 21 21 22 23 24 25 25 25 25 28 29 30 31 31 33 34 34 nan nan nan nan nan nan nan nan nan nan nan nan nan nan nan nan nan
nan nan nan 7 nan nan nan nan 13 nan nan nan nan nan nan nan nan nan nan nan nan nan nan nan nan nan nan nan nan nan 20 nan nan nan nan 19 16 nan nan nan nan 20 20 17 16 15 14 15 14 20 19 22 21 22 21 23 24 25 26 26 27 27 29 30 33 33 34 nan nan nan nan nan nan nan nan nan nan nan nan nan nan nan nan nan nan nan nan
nan nan nan nan nan 9 nan nan nan nan nan nan nan nan nan nan nan nan 11 15 nan nan nan nan nan nan nan nan nan 19 nan 19 nan nan 15 14 11 12 12 14 18 19 16 16 nan 12 14 15 18 23 21 23 24 25 25 26 26 26 27 27 29 29 32 32 33 33 nan nan nan nan nan nan nan nan nan nan nan nan nan nan nan nan nan nan nan nan nan
nan nan nan nan nan nan nan nan nan nan nan nan nan nan nan nan nan nan nan nan nan nan 8 nan nan nan nan nan nan nan nan 19 nan nan 17 16 14 13 16 21 17 15 nan 13 14 nan 10 nan 20 19 21 24 25 25 26 26 26 26 28 29 30 32 32 34 35 34 nan nan nan nan nan nan nan nan nan nan nan nan nan nan nan nan nan nan nan nan nan
nan nan nan nan nan nan nan nan nan nan nan nan nan 11 nan nan nan nan nan nan nan nan nan nan nan nan nan nan nan nan nan 19 17 nan 17 15 15 19 20 15 12 12 11 nan nan nan 11 nan 24 23 24 25 25 26 26 26 26 27 28 30 32 33 34 35 nan nan nan nan nan nan nan nan nan nan nan nan nan nan nan nan nan nan nan nan nan nan nan
nan nan nan nan nan nan nan nan nan nan nan nan 11 nan nan nan nan nan nan nan 19 22 12 nan nan nan nan nan nan 18 nan 18 17 17 19 21 nan 17 16 nan 11 11 10 10 nan 11 nan 24 23 24 25 25 26 26 27 27 28 30 31 32 33 34 34 35 nan nan nan nan nan nan nan nan nan nan nan nan nan nan nan nan nan nan nan nan nan nan nan
nan nan nan nan nan nan 7 nan nan nan nan nan nan 15 15 nan nan nan 13 15 15 18 20 16 17 nan 16 19 nan 19 17 20 nan 18 18 15 14 nan nan 12 10 9 13 12 nan nan 24 24 25 26 26 26 25 25 27 28 29 31 31 32 33 34 nan nan nan nan nan nan nan nan nan nan nan nan nan nan nan nan nan nan nan nan nan nan nan nan nan
nan nan nan nan nan nan 11 12 nan nan nan nan 10 nan nan nan nan 8 14 10 14 18 18 21 19 18 19 18 19 18 20 19 15 18 13 10 12 12 11 nan nan nan 13 13 21 24 23 25 25 25 26 24 24 24 27 28 29 30 31 31 33 33 nan nan nan nan nan nan nan nan nan nan nan nan nan nan nan nan nan nan nan nan nan nan nan nan nan
nan nan nan nan 12 12 nan nan nan nan nan nan 9 9 9 9 7 10 13 12 15 17 19 18 17 18 18 18 nan nan 16 15 12 11 12 11 16 nan 15 12 nan 16 nan nan 25 22 24 24 24 23 23 24 24 26 27 29 29 30 31 nan nan nan nan nan nan nan nan nan nan nan nan nan nan nan nan nan nan nan nan nan nan nan nan nan nan nan nan
nan nan nan nan nan nan nan nan nan nan nan 16 nan nan nan 5 nan 15 9 18 15 15 16 19 18 nan nan nan 14 17 19 15 12 12 9 11 17 14 15 14 13 15 nan nan nan nan nan 24 24 23 23 25 27 29 31 30 31 nan nan nan nan nan nan nan nan nan nan nan nan nan nan nan nan nan nan nan nan nan nan nan nan nan nan nan nan nan nan
Wind_Direction
nan nan nan nan nan nan nan nan nan nan nan nan nan nan nan nan nan nan nan nan nan nan nan nan nan nan nan nan nan nan nan nan nan nan nan nan nan nan nan nan nan nan nan nan nan nan nan nan nan nan nan nan nan nan nan nan nan nan nan nan nan nan nan nan nan nan nan nan nan nan nan nan nan nan nan nan nan nan nan nan nan nan nan nan nan nan 259
nan nan nan nan nan nan nan nan nan nan nan nan nan nan nan nan nan nan nan nan nan nan nan nan nan nan nan nan nan nan nan nan nan nan nan nan nan nan nan nan nan nan nan nan nan nan nan nan nan nan nan nan nan nan nan nan nan nan nan nan nan nan 230 nan nan nan nan nan nan nan nan nan nan nan nan nan nan nan nan nan nan nan nan nan nan nan 269
nan nan nan nan nan nan nan nan nan nan nan nan nan nan nan nan nan nan nan nan nan nan nan nan nan nan nan nan nan nan nan nan nan nan nan nan nan nan nan nan nan nan nan nan nan nan nan nan nan nan nan nan nan nan nan nan nan nan nan 205 nan nan nan nan nan nan nan nan nan nan nan nan nan nan nan nan nan nan nan nan nan nan nan nan nan 258 266
nan nan nan nan nan nan nan nan nan nan nan nan nan nan nan nan nan nan nan nan nan nan nan nan nan nan nan nan nan nan nan nan nan nan nan nan nan nan nan nan nan nan nan nan nan nan nan nan 275 nan nan nan nan nan nan nan nan nan nan nan nan nan nan nan nan 204 nan nan nan nan nan nan nan nan nan nan nan nan nan nan nan nan nan nan 230 265 265
nan nan nan nan nan nan nan nan nan nan nan nan nan nan nan nan nan nan nan nan nan nan nan nan nan nan nan nan nan nan nan nan nan nan nan nan nan nan nan nan nan nan nan nan nan nan nan nan nan nan nan nan 186 nan nan nan 263 nan nan nan nan nan nan nan nan 211 195 nan nan nan nan nan nan nan nan nan nan nan nan nan nan nan nan nan 242 251 262
nan nan nan nan nan nan nan nan nan nan nan nan nan nan nan nan nan nan nan nan nan nan nan nan nan nan nan nan nan nan nan nan nan nan nan nan nan nan nan nan nan nan nan nan nan nan nan nan nan nan nan nan nan nan nan nan nan nan nan nan nan nan nan 224 nan nan nan nan nan nan nan nan nan nan nan 175 176 nan nan nan nan nan nan nan 255 260 257
nan nan nan nan nan nan nan nan nan nan nan nan nan nan nan nan nan nan nan nan nan nan nan nan nan nan nan nan nan nan nan nan nan nan nan nan nan nan nan nan nan nan nan nan nan nan nan nan nan nan nan nan nan nan nan nan nan nan nan nan nan nan nan nan nan nan nan nan nan nan nan nan 187 191 185 186 nan 180 nan nan nan nan 197 nan 245 246 249
nan nan nan nan nan nan nan nan nan nan nan nan nan 332 nan nan nan nan nan nan nan nan nan nan nan nan nan nan nan nan nan nan nan nan nan nan nan nan nan nan nan nan nan nan nan nan nan nan nan nan nan nan nan nan nan nan nan nan nan nan nan nan 228 nan nan nan nan nan nan nan nan nan nan 198 197 nan nan 188 174 nan nan 197 209 204 241 243 242
nan nan nan nan nan nan nan nan nan nan nan nan nan nan nan nan nan nan nan nan nan nan nan nan nan nan nan nan nan nan nan nan nan nan nan nan nan nan nan nan nan nan nan nan nan nan nan nan nan nan nan nan nan nan nan nan nan nan nan nan nan nan 219 nan 207 214 nan nan nan nan 215 nan 220 208 nan nan 201 198 186 196 201 207 203 212 228 232 235
nan nan nan nan nan nan nan nan nan nan nan nan nan nan nan nan nan nan nan nan nan nan nan nan nan nan nan nan nan nan nan nan nan nan nan nan nan nan nan nan nan nan nan nan nan nan nan nan nan nan nan nan nan nan nan nan nan nan nan nan nan nan nan 223 219 nan nan nan nan nan 216 nan 221 nan nan nan nan 213 202 206 210 211 206 217 228 233 227
nan nan nan nan nan nan nan nan nan nan nan nan nan nan nan nan nan nan nan nan nan nan nan nan nan nan nan nan nan nan nan nan nan nan nan nan nan nan nan nan nan nan nan nan nan nan nan nan nan nan nan nan nan nan nan nan nan nan nan nan nan nan nan nan nan nan nan nan nan nan nan nan nan nan nan 226 nan 217 nan 212 212 212 215 222 224 234 238
nan nan nan nan nan nan nan nan nan nan nan nan nan nan nan nan nan nan 256 nan nan nan nan nan nan nan nan nan nan nan nan nan nan nan nan nan nan nan nan nan nan nan nan nan nan nan nan nan nan nan nan nan nan nan nan nan nan nan nan nan nan nan nan nan nan nan nan nan 189 nan nan nan nan nan nan nan 262 230 213 216 216 213 212 221 228 226 233
nan nan nan nan nan nan nan nan nan nan nan nan nan nan nan nan nan nan nan nan nan nan nan nan nan nan nan nan nan nan nan nan nan nan nan nan nan nan nan nan nan nan nan nan nan nan nan nan nan nan nan nan nan nan nan nan nan nan nan nan nan nan nan nan nan nan 222 nan nan nan nan nan nan nan nan nan nan nan nan 216 213 210 210 215 227 230 224
nan nan nan nan nan nan nan nan nan nan nan nan nan nan nan nan nan nan nan 243 236 nan nan nan nan nan nan nan nan nan nan nan nan nan nan nan nan nan nan nan nan nan nan nan nan nan nan nan nan nan nan nan nan nan 224 nan nan nan nan nan nan nan nan nan 227 nan nan nan nan 215 216 218 nan 218 nan nan nan nan 237 230 213 209 210 221 223 225 227
nan nan nan nan nan nan nan nan nan nan nan nan nan nan nan nan nan nan nan nan 236 219 nan nan nan nan nan nan nan nan nan nan nan nan nan nan nan nan nan nan nan nan nan nan nan nan nan nan nan nan 221 nan 235 nan nan nan nan nan nan nan nan nan nan nan nan 233 232 228 nan nan nan nan 220 214 nan nan nan nan 258 251 nan 217 221 226 227 225 222
nan nan nan nan nan nan nan nan nan nan nan nan nan nan nan nan nan nan nan nan nan nan nan nan nan nan nan nan nan nan nan nan nan nan nan nan nan nan nan nan nan nan nan nan nan nan nan nan nan nan 264 nan nan 305 nan nan nan nan nan nan nan nan nan nan nan 243 nan nan nan nan nan nan nan 220 nan nan nan nan nan nan 243 231 228 225 228 228 226
nan nan nan nan nan nan nan nan nan nan nan nan nan nan nan nan nan nan nan nan 250 237 210 nan nan nan nan nan nan nan nan nan nan nan nan nan nan nan nan nan nan nan nan nan nan nan nan nan nan nan nan nan nan nan nan nan nan nan 203 nan nan nan nan nan nan nan nan 239 234 nan nan 228 220 216 nan nan nan nan nan nan nan 237 237 234 231 233 234
nan nan nan nan nan nan nan nan nan nan nan nan nan nan nan nan nan nan nan nan nan 227 nan nan nan nan nan nan nan nan nan nan nan nan nan 247 nan nan nan nan nan nan nan nan nan nan nan nan nan nan 279 nan nan nan nan nan nan nan nan nan nan 219 nan nan nan nan 253 270 264 nan 241 241 nan 206 nan 216 213 nan nan nan nan nan 244 244 245 241 237
nan nan nan nan nan nan nan nan nan nan nan nan nan nan nan nan nan nan nan nan nan nan nan 195 nan nan nan nan nan nan nan nan nan nan nan nan nan nan nan nan nan nan nan nan nan 202 205 225 nan 222 nan 273 180 nan nan nan 240 nan nan nan 192 nan nan nan nan nan 220 221 259 253 238 nan 212 213 223 214 209 236 236 nan 233 237 244 248 250 249 243
nan nan nan nan nan nan nan nan nan nan nan nan nan nan nan nan nan nan nan nan nan nan nan nan nan nan nan nan nan nan nan nan nan nan nan nan nan nan nan nan nan nan nan nan nan nan 220 241 222 179 nan 214 215 nan nan nan nan nan nan nan nan nan nan 216 nan nan nan 246 250 nan 243 237 214 206 238 220 225 237 240 240 236 240 247 247 251 253 250
nan nan nan nan nan nan nan nan nan nan nan nan nan nan nan nan nan nan nan nan nan nan nan nan nan nan nan nan nan nan nan nan nan nan nan nan nan nan nan nan nan nan 225 nan nan 223 218 228 227 209 261 nan nan nan 238 263 nan nan nan 201 nan nan nan 238 nan 218 nan nan 241 nan 234 231 230 235 239 230 234 237 244 243 243 240 243 245 244 247 250
nan nan nan nan nan nan nan nan nan nan nan nan nan nan nan nan nan nan nan nan nan nan nan nan nan nan nan nan nan nan nan nan nan nan nan 236 246 nan 230 nan nan nan 233 225 219 nan nan 223 223 237 nan nan nan nan 262 nan nan 258 nan nan 210 nan 222 225 230 235 233 237 244 247 257 246 240 244 247 239 245 245 242 244 242 242 245 246 252 253 250
nan nan nan nan nan nan nan nan nan nan nan nan nan nan nan nan nan nan nan nan nan nan nan nan nan nan nan nan nan nan nan nan nan nan nan nan nan nan nan nan nan 210 nan nan 231 245 205 nan nan 204 229 226 221 235 215 nan nan nan 219 nan nan 241 228 256 237 257 260 257 260 265 252 248 nan nan 238 238 239 247 251 250 245 240 243 243 251 253 251
nan nan nan nan nan nan nan nan nan nan nan nan nan nan nan nan nan nan nan nan nan nan nan nan nan nan nan nan nan nan nan nan nan nan nan nan nan nan nan nan 243 240 nan 234 225 209 211 203 236 258 225 256 nan nan 235 nan 238 229 211 199 nan nan nan nan 256 269 nan nan 267 267 267 264 260 254 255 251 245 nan 251 259 256 248 247 249 246 247 250
nan nan nan nan nan nan nan nan nan nan nan nan nan nan nan nan nan nan 249 246 247 nan nan nan nan nan nan nan nan nan nan nan nan nan nan nan nan nan nan nan nan 220 234 221 224 nan nan nan nan nan nan 238 nan 258 276 275 277 277 nan nan 219 nan nan nan nan nan 252 264 262 259 254 250 248 255 253 251 nan 250 255 258 262 257 251 249 253 252 250
nan nan nan nan nan nan nan nan nan nan nan nan nan nan nan nan nan nan nan nan nan nan nan nan nan nan nan nan nan nan nan nan nan nan nan nan nan nan nan 223 227 nan 221 224 222 nan nan nan nan nan nan nan 246 nan 253 nan 249 278 nan 260 241 nan nan nan 271 265 264 269 271 260 nan nan 253 253 249 245 249 nan 250 nan 268 271 261 254 252 253 256
nan nan nan nan nan nan nan nan nan nan nan nan nan nan nan nan nan nan nan 243 233 237 nan nan nan nan nan nan nan nan nan nan nan nan nan nan nan nan nan nan nan 230 nan nan nan nan nan nan nan 204 nan 233 nan nan 245 279 nan 265 nan nan nan nan 235 222 nan 267 265 249 nan nan nan nan 261 255 253 258 256 256 256 nan nan nan 266 266 262 256 252
nan nan nan nan nan nan nan nan nan nan nan nan nan nan nan nan nan nan nan nan 232 220 213 208 209 201 nan nan nan nan nan nan nan nan nan nan nan nan nan nan nan nan nan nan nan nan nan nan nan nan nan nan nan nan nan nan nan nan nan 254 nan nan 247 235 245 nan 269 262 246 260 270 265 251 253 252 250 255 259 260 258 259 nan 261 265 268 267 265
nan nan nan nan nan nan nan nan nan nan nan nan nan nan nan nan nan nan nan nan 228 nan nan nan nan nan nan 229 nan nan nan nan nan nan nan nan nan nan nan nan nan nan nan nan nan nan 210 nan nan 217 224 222 nan nan nan nan nan nan 254 258 252 254 253 256 256 261 270 275 265 264 268 277 269 260 253 249 249 261 260 259 260 260 263 264 264 265 268
nan nan nan nan nan nan nan nan nan nan nan nan nan nan nan nan nan nan nan nan nan 216 210 nan nan nan nan nan nan nan nan nan nan nan nan nan nan nan nan nan nan nan nan nan nan nan nan nan 226 234 232 233 nan nan nan 250 256 253 260 259 261 260 258 255 251 254 266 261 263 269 272 277 275 270 266 263 257 255 260 259 257 nan nan 265 268 269 266
nan nan nan nan nan nan nan nan nan nan nan nan nan nan nan nan nan nan nan nan 221 nan nan nan nan nan nan nan nan nan nan nan nan nan nan nan nan nan nan nan nan nan 227 224 nan nan 217 219 226 238 232 236 nan nan nan nan 259 267 256 260 263 267 264 263 263 269 267 265 266 263 274 271 274 280 270 262 260 265 270 271 274 269 nan nan 275 273 271
nan nan nan nan nan nan nan nan nan nan nan nan nan nan 255 257 260 nan nan nan nan 211 nan nan nan nan nan nan nan nan nan nan nan nan nan nan nan nan 227 nan nan nan nan 218 224 nan 224 217 220 238 231 248 nan nan nan nan 272 279 273 268 265 260 261 261 264 264 266 269 267 273 277 279 264 267 274 270 269 268 nan 270 272 nan nan nan nan 275 271
nan nan nan nan nan nan nan nan nan nan nan nan nan nan nan nan nan 249 nan nan nan 207 206 nan nan nan nan nan nan nan nan nan nan nan nan nan nan nan 222 nan nan nan 233 217 227 219 226 231 236 233 245 254 nan nan nan nan 257 271 270 262 262 260 259 258 259 262 267 268 267 267 278 282 279 280 278 277 273 267 nan nan nan nan nan nan nan nan 276
nan nan nan nan nan nan nan nan nan nan nan nan nan nan nan nan nan nan nan nan 208 206 205 nan nan nan nan nan nan nan nan nan nan nan nan nan 222 nan nan nan nan nan 237 nan 233 nan 231 225 237 243 252 252 254 251 260 264 271 277 275 267 264 262 261 262 262 266 265 268 272 274 274 275 279 279 284 280 277 279 nan nan nan nan nan nan nan nan nan
nan nan nan nan nan nan nan nan nan nan nan nan nan nan nan nan nan nan nan nan 210 nan nan nan nan nan nan nan nan nan nan nan nan nan nan nan nan nan nan 213 228 nan 235 nan nan 221 225 236 233 245 251 260 266 269 263 269 279 283 274 273 269 267 267 267 270 269 270 269 274 274 279 281 285 285 284 282 276 271 nan nan nan nan nan nan nan nan nan
nan nan nan nan nan nan nan nan nan nan nan nan nan 259 nan nan nan nan nan nan 204 202 nan nan nan nan nan nan nan nan nan nan nan nan nan nan nan nan 223 225 224 nan 227 nan nan 234 nan 242 243 248 257 262 269 268 271 277 269 274 278 275 274 272 269 267 270 275 277 281 280 278 282 285 287 286 282 283 nan nan nan nan nan nan nan nan nan nan nan
nan nan nan nan nan nan nan nan nan nan 269 nan nan nan nan 243 233 221 217 208 208 206 197 196 nan nan nan nan nan 223 nan nan nan nan nan 235 224 nan 231 230 230 225 223 227 223 227 236 242 244 249 260 264 265 266 269 272 282 277 273 271 272 268 269 270 275 281 285 285 284 284 286 290 286 282 285 285 nan nan nan nan nan nan nan nan nan nan nan
nan nan nan nan nan nan nan 295 288 281 nan nan nan nan nan 224 nan nan 214 nan 206 209 199 nan nan 190 nan nan nan 235 nan nan nan nan nan nan 230 225 nan 221 nan 236 230 228 230 226 nan 245 244 248 256 255 261 273 278 281 277 272 269 272 275 272 273 278 285 290 290 291 291 292 291 nan 292 292 nan nan nan nan nan nan nan nan nan nan nan nan nan
nan nan nan nan nan 296 290 281 270 nan nan nan 250 nan nan nan nan nan nan nan nan nan nan nan nan nan nan nan 221 nan nan 212 nan nan 214 211 nan 220 219 224 236 nan 229 236 231 221 234 247 241 251 257 263 268 277 275 271 273 274 277 278 279 277 279 283 290 292 292 289 288 293 292 291 nan nan nan nan nan nan nan nan nan nan nan nan nan nan nan
nan nan nan nan 302 290 281 279 nan 266 nan nan nan 214 nan nan nan nan nan nan nan nan nan nan nan nan nan nan nan 222 nan nan 210 218 225 213 213 219 213 215 220 216 nan nan 234 231 225 nan 245 242 250 258 267 273 270 270 269 272 277 282 283 282 284 286 287 287 287 281 283 289 289 284 282 nan nan nan nan nan nan nan nan nan nan nan nan nan nan
nan nan nan nan nan 273 279 nan 275 nan nan nan 220 nan nan nan nan nan nan nan nan nan nan nan nan nan nan nan nan nan nan 220 215 218 211 220 220 nan 221 217 221 nan nan 228 233 231 240 240 254 258 266 282 275 282 283 284 282 281 279 280 283 283 289 288 288 286 286 288 288 288 287 286 nan nan nan nan nan nan nan nan nan nan nan nan nan nan nan
nan nan nan nan nan 250 nan 280 259 244 224 nan nan nan nan nan nan nan nan nan nan nan nan nan nan nan nan nan nan nan nan 226 220 219 220 212 221 nan nan 227 218 nan 224 232 241 235 236 241 247 254 261 274 283 284 285 285 284 283 284 284 286 289 291 290 290 290 291 292 292 291 288 nan nan nan nan nan nan nan nan nan nan nan nan nan nan nan nan
nan nan nan nan 261 nan 263 nan 240 212 nan nan nan nan nan nan nan nan nan nan 197 nan nan nan nan nan nan nan nan nan 213 nan nan 234 nan 217 210 210 213 nan nan nan 231 nan 232 241 239 nan nan 266 279 279 279 277 279 282 283 284 286 287 290 293 294 294 292 291 291 291 291 291 nan nan nan nan nan nan nan nan nan nan nan nan nan nan nan nan nan
nan nan nan 258 nan nan nan nan 214 nan nan nan nan nan nan nan nan nan nan nan nan nan nan nan nan nan nan nan nan nan 218 nan nan nan nan 229 222 nan nan nan nan 231 230 230 230 233 239 243 248 274 280 278 278 287 290 290 288 289 290 294 296 297 295 293 291 291 289 nan nan nan nan nan nan nan nan nan nan nan nan nan nan nan nan nan nan nan nan
nan nan nan nan nan 215 nan nan nan nan nan nan nan nan nan nan nan nan 169 198 nan nan nan nan nan nan nan nan nan 216 nan 213 nan nan 220 223 221 229 218 220 228 233 232 237 nan 234 239 244 254 279 287 289 290 293 290 291 292 294 294 297 297 296 294 295 294 292 nan nan nan nan nan nan nan nan nan nan nan nan nan nan nan nan nan nan nan nan nan
nan nan nan nan nan nan nan nan nan nan nan nan nan nan nan nan nan nan nan nan nan nan 201 nan nan nan nan nan nan nan nan 212 nan nan 216 218 213 222 226 224 223 238 nan 237 238 nan 247 nan 278 282 287 289 292 293 293 292 292 291 292 294 294 294 294 293 291 290 nan nan nan nan nan nan nan nan nan nan nan nan nan nan nan nan nan nan nan nan nan
nan nan nan nan nan nan nan nan nan nan nan nan nan 157 nan nan nan nan nan nan nan nan nan nan nan nan nan nan nan nan nan 215 210 nan 218 215 219 215 213 221 227 234 236 nan nan nan 255 nan 282 283 289 289 293 293 294 293 293 293 294 293 296 295 294 293 nan nan nan nan nan nan nan nan nan nan nan nan nan nan nan nan nan nan nan nan nan nan nan
nan nan nan nan nan nan nan nan nan nan nan nan 162 nan nan nan nan nan nan nan 205 191 193 nan nan nan nan nan nan 200 nan 218 214 222 217 217 nan 216 222 nan 223 231 236 239 nan 232 nan 267 282 286 288 289 291 292 293 293 295 297 297 297 297 297 297 296 nan nan nan nan nan nan nan nan nan nan nan nan nan nan nan nan nan nan nan nan nan nan nan
nan nan nan nan nan nan 178 nan nan nan nan nan nan 178 169 nan nan nan 201 212 212 220 193 196 210 nan 202 195 nan 206 208 220 nan 221 226 220 224 nan nan 229 241 236 228 230 nan nan 264 271 276 285 285 288 288 289 289 292 294 297 298 299 299 298 nan nan nan nan nan nan nan nan nan nan nan nan nan nan nan nan nan nan nan nan nan nan nan nan nan
nan nan nan nan nan nan 174 188 nan nan nan nan 167 nan nan nan nan 198 229 215 221 216 200 203 210 197 204 202 203 208 207 207 215 220 217 227 227 224 222 nan nan nan 247 250 258 269 276 279 283 286 289 288 287 287 289 292 295 297 299 300 299 299 nan nan nan nan nan nan nan nan nan nan nan nan nan nan nan nan nan nan nan nan nan nan nan nan nan
nan nan nan nan 159 182 nan nan nan nan nan nan 158 167 181 179 152 217 226 231 230 219 211 200 201 204 206 205 nan nan 210 221 218 227 224 229 232 nan 219 213 nan 237 nan nan 263 269 276 280 282 284 286 287 287 286 289 292 298 299 302 nan nan nan nan nan nan nan nan nan nan nan nan nan nan nan nan nan nan nan nan nan nan nan nan nan nan nan nan
nan nan nan nan nan nan nan nan nan nan nan 165 nan nan nan 160 nan 238 237 238 228 217 207 198 191 nan nan nan 214 212 222 221 218 229 230 231 241 233 230 220 221 216 nan nan nan nan nan 277 280 285 289 289 289 289 289 293 296 nan nan nan nan nan nan nan nan nan nan nan nan nan nan nan nan nan nan nan nan nan nan nan nan nan nan nan nan nan nan